This is the latest recevied weather packets stored in our database for station/object KC5CAM-13. If no packets are shown the sender has not sent any weather packets the latest 1 day(s).
| Time | Temp. | Humidity | Pressure | Rain* | Wind** | Luminosity | Snow |
|---|---|---|---|---|---|---|---|
| 1777984042 | 21.67° C | 87% | 1004 hPa | 0 mm | 2.24 m/s, 144° | 22 W/m² | - |
| 1777983740 | 21.67° C | 86% | 1004 hPa | 0 mm | 1.79 m/s, 152° | 21 W/m² | - |
| 1777983436 | 21.67° C | 87% | 1004 hPa | 0 mm | 3.13 m/s, 164° | 20 W/m² | - |
| 1777983133 | 21.67° C | 87% | 1003.8 hPa | 0 mm | 2.68 m/s, 222° | 16 W/m² | - |
| 1777982829 | 21.67° C | 87% | 1004 hPa | 0 mm | 1.34 m/s, 105° | 10 W/m² | - |
| 1777982525 | 21.67° C | 87% | 1003.9 hPa | 0 mm | 2.24 m/s, 263° | 8 W/m² | - |
| 1777982219 | 21.67° C | 87% | 1004.1 hPa | 0 mm | 2.68 m/s, 210° | 6 W/m² | - |
| 1777981917 | 21.67° C | 87% | 1004 hPa | 0 mm | 1.79 m/s, 153° | 4 W/m² | - |
| 1777981614 | 21.11° C | 87% | 1003.8 hPa | 0 mm | 2.68 m/s, 161° | 3 W/m² | - |
| 1777981310 | 21.67° C | 87% | 1004 hPa | 0 mm | 1.34 m/s, 182° | 0 W/m² | - |
| 1777981006 | 21.11° C | 87% | 1003.7 hPa | 0 mm | 1.34 m/s, 142° | 0 W/m² | - |
| 1777980703 | 21.11° C | 87% | 1003.8 hPa | 0 mm | 2.68 m/s, 184° | 0 W/m² | - |
| 1777980400 | 21.11° C | 87% | 1003.7 hPa | 0 mm | 1.34 m/s, 206° | 0 W/m² | - |
| 1777980098 | 21.11° C | 87% | 1003.7 hPa | 0 mm | 2.68 m/s, 194° | 0 W/m² | - |
| 1777979797 | 21.11° C | 87% | 1003.8 hPa | 0 mm | 1.79 m/s, 182° | 0 W/m² | - |
| 1777979493 | 21.11° C | 87% | 1003.6 hPa | 0 mm | 1.34 m/s, 300° | 0 W/m² | - |
| 1777979189 | 21.11° C | 87% | 1003.7 hPa | 0 mm | 3.13 m/s, 186° | 0 W/m² | - |
| 1777978887 | 21.11° C | 87% | 1003.7 hPa | 0 mm | 1.34 m/s, 151° | 0 W/m² | - |
| 1777978583 | 21.11° C | 87% | 1003.9 hPa | 0 mm | 2.68 m/s, 180° | 0 W/m² | - |
| 1777978279 | 21.67° C | 87% | 1003.9 hPa | 0 mm | 3.13 m/s, 181° | 0 W/m² | - |
| 1777977976 | 21.67° C | 86% | 1003.8 hPa | 0 mm | 2.24 m/s, 238° | 0 W/m² | - |
| 1777977674 | 21.67° C | 86% | 1003.7 hPa | 0 mm | 1.34 m/s, 176° | 0 W/m² | - |
| 1777977370 | 21.67° C | 86% | 1003.7 hPa | 0 mm | 3.13 m/s, 94° | 0 W/m² | - |
| 1777977068 | 21.67° C | 86% | 1003.8 hPa | 0 mm | 2.24 m/s, 172° | 0 W/m² | - |
| 1777976765 | 21.67° C | 86% | 1003.8 hPa | 0 mm | 3.58 m/s, 170° | 0 W/m² | - |
* Rain latest hour (hover to see other rain measurements)
** Current wind speed in m/s (hover to see current wind gust speed)